• In Slovakia
  • List of Countries
  • For 7 days
  • Water Temperature
  • Satellite Maps
  • Weather Map
  • Weather Widgets
  • user-avatar
    Login

    Hourly Weather Lankaran

    Today, 20 May, Sunday

    Time Temperature Precipitation Wind Pressure Humidity
    00:00 +12°C° 0 mm 1 mps 635 mmHg 67%
    01:00 +12°C° 0 mm 1 mps 635 mmHg 68%
    02:00 +12°C° 0 mm 1 mps 635 mmHg 69%
    03:00 +11°C° 0 mm 1 mps 634 mmHg 72%
    04:00 +13°C° 0 mm 1 mps 635 mmHg 68%
    05:00 +14°C° 0 mm 1 mps 635 mmHg 65%
    06:00 +15°C° 0 mm 1 mps 636 mmHg 61%
    07:00 +18°C° 0 mm 1 mps 636 mmHg 55%
    08:00 +19°C° 0 mm 1 mps 636 mmHg 49%
    09:00 +20°C° 0 mm 2 mps 637 mmHg 43%
    10:00 +20°C° 0 mm 2 mps 637 mmHg 41%
    11:00 +21°C° 0 mm 2 mps 637 mmHg 40%
    12:00 +22°C° 0 mm 3 mps 637 mmHg 39%
    13:00 +22°C° 0.2 mm 3 mps 636 mmHg 39%
    14:00 +21°C° 0.2 mm 3 mps 636 mmHg 40%
    15:00 +21°C° 0.2 mm 3 mps 636 mmHg 40%
    16:00 +20°C° 0.4 mm 2 mps 635 mmHg 45%
    17:00 +19°C° 0.4 mm 2 mps 635 mmHg 50%
    18:00 +18°C° 0.4 mm 2 mps 634 mmHg 55%
    19:00 +17°C° 0.4 mm 2 mps 634 mmHg 59%
    20:00 +16°C° 0.4 mm 1 mps 634 mmHg 64%
    21:00 +14°C° 0.4 mm 1 mps 634 mmHg 68%
    22:00 +14°C° 0.3 mm 1 mps 634 mmHg 69%
    23:00 +14°C° 0.3 mm 1 mps 634 mmHg 70%

    Tomorrow, 21 May, Monday

    Time Temperature Precipitation Wind Pressure Humidity
    00:00 +14°C° 0.3 mm 1 mps 634 mmHg 71%
    01:00 +14°C° 0.2 mm 1 mps 634 mmHg 73%
    02:00 +14°C° 0.2 mm 1 mps 634 mmHg 75%
    03:00 +12°C° 0.2 mm 0 mps 634 mmHg 77%
    04:00 +13°C° 0.1 mm 0 mps 634 mmHg 74%
    05:00 +14°C° 0.1 mm 0 mps 634 mmHg 71%
    06:00 +15°C° 0.1 mm 0 mps 635 mmHg 68%
    07:00 +18°C° 0 mm 1 mps 635 mmHg 62%
    08:00 +19°C° 0 mm 1 mps 636 mmHg 56%
    09:00 +21°C° 0 mm 1 mps 636 mmHg 50%
    10:00 +20°C° 0.4 mm 2 mps 636 mmHg 48%
    11:00 +21°C° 0.4 mm 2 mps 636 mmHg 46%
    12:00 +23°C° 0.4 mm 2 mps 636 mmHg 45%
    13:00 +21°C° 0.7 mm 2 mps 636 mmHg 46%
    14:00 +21°C° 0.7 mm 2 mps 636 mmHg 47%
    15:00 +21°C° 0.7 mm 2 mps 635 mmHg 49%
    16:00 +20°C° 0 mm 2 mps 635 mmHg 53%
    17:00 +19°C° 0 mm 2 mps 635 mmHg 57%
    18:00 +18°C° 0 mm 2 mps 635 mmHg 61%
    19:00 +17°C° 0.4 mm 2 mps 635 mmHg 64%
    20:00 +16°C° 0.4 mm 1 mps 635 mmHg 67%
    21:00 +15°C° 0.4 mm 1 mps 635 mmHg 70%
    22:00 +15°C° 0.5 mm 1 mps 635 mmHg 71%
    23:00 +15°C° 0.5 mm 1 mps 635 mmHg 72%

    Day after tomorrow, 22 May, Tuesday

    Time Temperature Precipitation Wind Pressure Humidity
    00:00 +15°C° 0.5 mm 1 mps 635 mmHg 73%
    01:00 +14°C° 0.1 mm 1 mps 634 mmHg 74%
    02:00 +14°C° 0.1 mm 1 mps 634 mmHg 75%
    03:00 +13°C° 0.1 mm 1 mps 634 mmHg 77%
    04:00 +14°C° 0.1 mm 1 mps 635 mmHg 75%
    05:00 +15°C° 0.1 mm 1 mps 635 mmHg 72%
    06:00 +15°C° 0.1 mm 1 mps 635 mmHg 70%
    07:00 +18°C° 0.1 mm 1 mps 636 mmHg 63%
    08:00 +18°C° 0.1 mm 2 mps 636 mmHg 56%
    09:00 +19°C° 0.1 mm 2 mps 637 mmHg 48%
    10:00 +20°C° 0.3 mm 2 mps 637 mmHg 45%
    11:00 +21°C° 0.3 mm 3 mps 637 mmHg 42%
    12:00 +22°C° 0.3 mm 3 mps 637 mmHg 39%
    13:00 +21°C° 0.3 mm 3 mps 637 mmHg 40%
    14:00 +21°C° 0.3 mm 3 mps 637 mmHg 41%
    15:00 +20°C° 0.3 mm 3 mps 636 mmHg 41%
    16:00 +19°C° 0.5 mm 3 mps 636 mmHg 47%
    17:00 +18°C° 0.5 mm 2 mps 636 mmHg 52%
    18:00 +16°C° 0.5 mm 1 mps 636 mmHg 57%
    19:00 +15°C° 0.3 mm 1 mps 636 mmHg 59%
    20:00 +15°C° 0.3 mm 1 mps 636 mmHg 61%
    21:00 +14°C° 0.3 mm 2 mps 636 mmHg 63%
    22:00 +14°C° 0.1 mm 1 mps 636 mmHg 62%
    23:00 +13°C° 0.1 mm 1 mps 636 mmHg 62%

    23 May, Wednesday

    Time Temperature Precipitation Wind Pressure Humidity
    00:00 +13°C° 0.1 mm 1 mps 635 mmHg 61%
    01:00 +12°C° 0 mm 1 mps 635 mmHg 60%
    02:00 +12°C° 0 mm 1 mps 635 mmHg 59%
    03:00 +12°C° 0 mm 2 mps 635 mmHg 58%
    04:00 +13°C° 0.1 mm 1 mps 635 mmHg 56%
    05:00 +13°C° 0.1 mm 1 mps 635 mmHg 53%
    06:00 +14°C° 0.1 mm 1 mps 636 mmHg 51%
    07:00 +16°C° 0.1 mm 2 mps 636 mmHg 45%
    08:00 +17°C° 0.1 mm 2 mps 637 mmHg 39%
    09:00 +19°C° 0.1 mm 2 mps 637 mmHg 33%
    10:00 +20°C° 0.1 mm 3 mps 637 mmHg 33%
    11:00 +20°C° 0.1 mm 3 mps 637 mmHg 32%
    12:00 +21°C° 0.1 mm 4 mps 637 mmHg 32%
    13:00 +21°C° 0 mm 4 mps 637 mmHg 33%
    14:00 +21°C° 0 mm 4 mps 636 mmHg 33%
    15:00 +21°C° 0 mm 4 mps 636 mmHg 34%
    16:00 +19°C° 0 mm 3 mps 635 mmHg 38%
    17:00 +18°C° 0 mm 3 mps 635 mmHg 43%
    18:00 +17°C° 0 mm 2 mps 634 mmHg 47%
    19:00 +15°C° 0 mm 2 mps 634 mmHg 46%
    20:00 +14°C° 0 mm 2 mps 634 mmHg 46%
    21:00 +13°C° 0 mm 2 mps 634 mmHg 45%
    22:00 +13°C° 0 mm 2 mps 634 mmHg 42%
    23:00 +12°C° 0 mm 2 mps 633 mmHg 40%

    24 May, Thursday

    Time Temperature Precipitation Wind Pressure Humidity
    00:00 +12°C° 0 mm 2 mps 633 mmHg 37%
    01:00 +12°C° 0 mm 2 mps 633 mmHg 36%
    02:00 +12°C° 0 mm 2 mps 632 mmHg 36%
    03:00 +10°C° 0 mm 2 mps 632 mmHg 35%
    04:00 +12°C° 0.1 mm 2 mps 632 mmHg 36%
    05:00 +13°C° 0.1 mm 1 mps 632 mmHg 38%
    06:00 +13°C° 0.1 mm 1 mps 633 mmHg 39%
    07:00 +15°C° 0.2 mm 1 mps 633 mmHg 36%
    08:00 +16°C° 0.2 mm 1 mps 633 mmHg 33%
    09:00 +18°C° 0.2 mm 1 mps 634 mmHg 30%
    10:00 +17°C° 0.2 mm 2 mps 634 mmHg 31%
    11:00 +18°C° 0.2 mm 2 mps 634 mmHg 31%
    12:00 +18°C° 0.2 mm 2 mps 634 mmHg 31%
    13:00 +18°C° 0.1 mm 2 mps 633 mmHg 31%
    14:00 +19°C° 0.1 mm 2 mps 633 mmHg 32%
    15:00 +19°C° 0.1 mm 2 mps 633 mmHg 32%
    16:00 +18°C° 0 mm 2 mps 633 mmHg 36%
    17:00 +18°C° 0 mm 1 mps 633 mmHg 39%
    18:00 +16°C° 0 mm 1 mps 632 mmHg 43%
    19:00 +15°C° 0 mm 1 mps 632 mmHg 44%
    20:00 +13°C° 0 mm 1 mps 632 mmHg 44%
    21:00 +12°C° 0 mm 1 mps 631 mmHg 45%
    22:00 +12°C° 0 mm 1 mps 631 mmHg 45%
    23:00 +12°C° 0 mm 2 mps 631 mmHg 45%

    25 May, Friday

    Time Temperature Precipitation Wind Pressure Humidity
    00:00 +10°C° 0 mm 2 mps 630 mmHg 46%
    01:00 +10°C° 0 mm 2 mps 630 mmHg 46%
    02:00 +10°C° 0 mm 2 mps 630 mmHg 47%
    03:00 +10°C° 0 mm 2 mps 630 mmHg 48%
    04:00 +12°C° 0 mm 2 mps 630 mmHg 49%
    05:00 +13°C° 0 mm 2 mps 631 mmHg 50%
    06:00 +14°C° 0 mm 2 mps 631 mmHg 50%
    07:00 +16°C° 0 mm 2 mps 632 mmHg 47%
    08:00 +17°C° 0 mm 2 mps 633 mmHg 44%
    09:00 +19°C° 0 mm 2 mps 633 mmHg 40%
    10:00 +20°C° 0.2 mm 2 mps 633 mmHg 40%
    11:00 +21°C° 0.2 mm 2 mps 633 mmHg 40%
    12:00 +22°C° 0.2 mm 3 mps 633 mmHg 39%
    13:00 +21°C° 0.4 mm 2 mps 633 mmHg 40%
    14:00 +21°C° 0.4 mm 2 mps 632 mmHg 42%
    15:00 +21°C° 0.4 mm 2 mps 632 mmHg 43%
    16:00 +20°C° 0.5 mm 2 mps 632 mmHg 49%
    17:00 +19°C° 0.5 mm 2 mps 632 mmHg 55%
    18:00 +19°C° 0.5 mm 1 mps 631 mmHg 61%
    19:00 +18°C° 0.2 mm 1 mps 631 mmHg 65%
    20:00 +15°C° 0.2 mm 1 mps 631 mmHg 69%
    21:00 +14°C° 0.2 mm 1 mps 631 mmHg 73%
    22:00 +14°C° 0.2 mm 1 mps 631 mmHg 72%
    23:00 +14°C° 0.2 mm 1 mps 631 mmHg 72%
    Show more